Location: Gipe Farm
(40.9466°N, 95.5370°W)
Time: 18:03:14
(UTC-05:00)

Cosmos 1842 - Visible Passes

Search period start: 30 July 2015 00:00
Search period end: 09 August 2015 00:00
Orbit: 528 x 547 km, 82.5° (Epoch: 30 July)

Date Brightness Start Highest point End Pass type
(mag) Time Alt. Az. Time Alt. Az. Time Alt. Az.
30 Jul 5.9 01:07:41 10° NNE 01:09:00 15° NE 01:09:00 15° NE visible
30 Jul 5.6 02:43:17 10° NNW 02:44:27 17° NW 02:44:27 17° NW visible
31 Jul 5.9 00:59:35 10° NNE 01:00:46 15° NE 01:00:46 15° NE visible
31 Jul 5.7 02:35:10 10° NNW 02:36:13 16° NW 02:36:13 16° NW visible
01 Aug 5.9 00:51:29 10° NNE 00:52:34 14° NE 00:52:34 14° NE visible
01 Aug 5.8 02:27:02 10° NNW 02:28:01 16° NW 02:28:01 16° NW visible
02 Aug 6.0 00:43:23 10° NNE 00:44:22 14° NE 00:44:22 14° NE visible
02 Aug 5.9 02:18:55 10° NNW 02:19:49 15° NW 02:19:49 15° NW visible
03 Aug 6.0 00:35:15 10° NNE 00:36:10 14° NE 00:36:10 14° NE visible
03 Aug 5.9 02:10:46 10° NNW 02:11:37 15° NW 02:11:37 15° NW visible
04 Aug 6.0 00:27:08 10° NNE 00:27:59 13° NE 00:27:59 13° NE visible
04 Aug 6.0 02:02:38 10° NNW 02:03:26 15° NW 02:03:26 15° NW visible
05 Aug 6.0 00:19:01 10° NNE 00:19:48 13° NE 00:19:48 13° NE visible
05 Aug 6.0 01:54:29 10° NNW 01:55:15 14° NW 01:55:15 14° NW visible
06 Aug 6.0 00:10:54 10° NNE 00:11:38 13° NE 00:11:38 13° NE visible
06 Aug 6.1 01:46:21 10° NNW 01:47:05 14° NW 01:47:05 14° NW visible
07 Aug 6.0 00:02:46 10° NNE 00:03:28 13° NE 00:03:28 13° NE visible
07 Aug 6.1 01:38:12 10° NNW 01:38:55 14° NW 01:38:55 14° NW visible
07 Aug 6.0 23:54:38 10° NNE 23:55:18 13° NE 23:55:18 13° NE visible
08 Aug 6.1 01:30:02 10° NNW 01:30:45 14° NW 01:30:45 14° NW visible
08 Aug 6.0 23:46:29 10° NNE 23:47:09 13° NE 23:47:09 13° NE visible
